Cleveland Cuyahoga, OH

2:55 PM EDT on June 28, 2017 (GMT -0400)
Cuyahoga County

Weather History for KCGF - March, 2013

Change the Weather History Date:

Wednesday, March 13, 2013

  Actual Average Record
Temperature  
Mean Temperature 32 °F -  
Max Temperature 33 °F 40 °F 71 °F (2007)
Min Temperature 30 °F 28 °F 12 °F (2005)
Degree Days  
Heating Degree Days 34    
Moisture  
Dew Point 23 °F    
Average Humidity 71    
Maximum Humidity 80    
Minimum Humidity 55    
Precipitation  
Precipitation 0.00 in - - ()
Sea Level Pressure  
Sea Level Pressure 30.00 in    
Wind  
Wind Speed 17 mph (West)    
Max Wind Speed 23 mph    
Max Gust Speed 43 mph    
Visibility 9 miles    
Events Snow    
Averages and records for this station are not official NWS values.
T = Trace of Precipitation, MM = Missing Value Source: NWS Daily Summary

Daily Weather History Graph

Daily Weather History Graph

Search for Another Location

Airport or City:

Trip Planner

Search our weather history database for the weather conditions in past years. The results will help you decide how hot, cold, wet, or windy it might be!

Date:

Astronomy

Mar. 13, 2013 Rise Set
Actual Time 7:40 AM EDT 7:30 PM EDT
Civil Twilight 7:13 AM EDT 7:58 PM EDT
Nautical Twilight 6:40 AM EDT 8:30 PM EDT
Astronomical Twilight 6:08 AM EDT 9:03 PM EDT
Moon 8:17 AM EDT (3/13) 9:48 PM EDT (3/13)
Length of Visible Light 12h 45m
Length of Day
11h 49m
Waxing Crescent, 4% of the Moon is Illuminated
Mar 13
Waxing Crescent
Mar 19
First Quarter
Mar 27
Full
Apr 3
Last Quarter
Apr 10
New

Hourly Weather History & Observations

Time (EDT) Temp. Windchill Dew Point Humidity Pressure Visibility Wind Dir Wind Speed Gust Speed Precip Events Conditions
6:45 AM 33.8 °F 25.3 °F 26.6 °F 75% 29.89 in 10.0 mi WSW 11.5 mph 20.7 mph N/A Snow Light Snow
7:45 AM 33.8 °F 23.5 °F 24.8 °F 70% 29.89 in 10.0 mi West 16.1 mph - N/A   Overcast
8:45 AM 33.8 °F 25.3 °F 24.8 °F 70% 29.91 in 10.0 mi West 11.5 mph 23.0 mph N/A   Overcast
9:45 AM 32.0 °F 20.8 °F 24.8 °F 75% 29.93 in 10.0 mi West 17.3 mph 28.8 mph N/A   Overcast
10:45 AM 32.0 °F 21.2 °F 24.8 °F 75% 29.95 in 7.0 mi West 16.1 mph 27.6 mph N/A Snow Light Snow Showers
11:45 AM 33.8 °F 21.6 °F 26.6 °F 75% 29.95 in 7.0 mi WNW 23.0 mph 42.6 mph N/A   Overcast
12:10 PM 32.0 °F 19.2 °F 26.6 °F 80% 29.97 in 1.5 mi West 23.0 mph 36.8 mph N/A Snow Light Snow Showers
12:22 PM 32.0 °F 20.1 °F 26.6 °F 80% 29.98 in 7.0 mi West 19.6 mph 32.2 mph N/A Snow Light Snow Showers
12:45 PM 32.0 °F 19.2 °F 19.4 °F 60% 29.98 in 20.0 mi WNW 23.0 mph 40.3 mph N/A   Mostly Cloudy
1:45 PM 32.0 °F 19.8 °F 17.6 °F 55% 30.00 in 20.0 mi West 20.7 mph 32.2 mph N/A   Mostly Cloudy
2:45 PM 32.0 °F 19.2 °F 19.4 °F 60% 30.01 in 20.0 mi West 23.0 mph 33.4 mph N/A   Overcast
3:45 PM 32.0 °F 19.8 °F 19.4 °F 60% 30.02 in 7.0 mi West 20.7 mph 33.4 mph N/A   Overcast
4:45 PM 30.2 °F 17.8 °F 23.0 °F 75% 30.04 in 4.0 mi WNW 19.6 mph 32.2 mph N/A Snow Light Snow
5:45 PM 30.2 °F 17.8 °F 23.0 °F 75% 30.05 in 5.0 mi WNW 19.6 mph 32.2 mph N/A Snow Light Snow
6:49 PM 30.2 °F 18.1 °F 23.0 °F 75% 30.07 in 7.0 mi WNW 18.4 mph 29.9 mph N/A   Overcast
7:45 PM 30.2 °F 18.1 °F 23.0 °F 75% 30.09 in 7.0 mi West 18.4 mph 26.5 mph N/A   Overcast
8:45 PM 32.0 °F 20.1 °F 23.0 °F 69% 30.10 in 7.0 mi West 19.6 mph 26.5 mph N/A   Overcast
9:45 PM 32.0 °F 20.1 °F 23.0 °F 69% 30.11 in 7.0 mi West 19.6 mph 26.5 mph N/A   Overcast
10:45 PM 32.0 °F 19.8 °F 23.0 °F 69% 30.11 in 7.0 mi WNW 20.7 mph 28.8 mph N/A   Overcast